Vertical_Velocity
6 -1 2 2 -3 1 0 2 2 2 0 1 4 6 6 -0 3 3 5 1 0 2
2 -1 -4 -1 3 0 2 2 2 3 2 2 1 5 1 11 2 -1 5 -2 0 2
-2 5 4 5 2 -2 3 0 -1 0 0 3 1 7 4 3 9 5 6 5 -0 4
1 2 4 3 4 2 5 -0 1 -1 1 8 11 12 13 8 5 7 10 11 5 5
-1 2 1 -4 -1 1 -1 6 1 10 9 4 -2 2 9 -4 4 8 4 2 4 7
-5 -1 -3 1 -5 -3 4 3 9 1 3 1 -2 -8 -21 5 1 2 8 -1 -2 6
4 1 -1 1 1 2 -0 2 2 3 3 1 -3 -15 -3 -18 -3 -4 11 -3 7 2
0 2 -2 2 1 5 5 4 5 5 7 -1 9 11 11 -13 -22 -6 -25 -1 5 3
-1 -1 3 4 -5 -1 1 2 2 -0 2 -2 6 -8 -2 10 -1 -8 1 1 1 7
2 1 -2 -2 -3 -1 4 5 2 2 3 -2 5 2 7 3 3 -1 -1 -5 7 -6
0 1 -2 -2 -1 2 2 0 2 3 5 4 7 7 4 -1 6 5 3 1 -1 8
1 2 1 -0 -0 -0 2 1 -0 2 2 5 4 1 1 3 6 3 -3 3 -1 -2
-0 2 1 1 1 -1 3 3 2 4 9 10 3 8 6 0 -4 -2 -1 3 -3 0
-1 2 2 0 2 2 1 2 5 8 10 9 10 4 5 4 -2 2 -1 -1 -4 -1
Height
1477 1481 1485 1488 1492 1498 1501 1504 1508 1512 1514 1518 1523 1526 1527 1529 1533 1535 1536 1539 1543 1547
1473 1476 1479 1482 1486 1490 1495 1500 1504 1508 1511 1515 1519 1521 1524 1526 1528 1531 1534 1535 1540 1542
1467 1469 1473 1476 1479 1483 1489 1493 1497 1502 1506 1511 1514 1518 1520 1524 1527 1528 1530 1530 1537 1538
1461 1464 1467 1470 1473 1477 1483 1486 1490 1494 1499 1504 1508 1514 1517 1520 1526 1528 1530 1529 1533 1536
1458 1461 1463 1465 1468 1472 1477 1480 1483 1487 1490 1494 1498 1508 1516 1518 1525 1526 1527 1530 1532 1534
1453 1456 1459 1461 1465 1467 1469 1472 1474 1477 1480 1484 1490 1495 1501 1514 1518 1527 1528 1527 1530 1534
1449 1451 1454 1457 1459 1460 1462 1464 1467 1470 1473 1477 1482 1490 1498 1505 1512 1522 1525 1527 1529 1529
1444 1446 1449 1451 1453 1455 1456 1458 1461 1463 1466 1471 1476 1479 1479 1490 1504 1512 1518 1520 1526 1528
1439 1441 1443 1445 1448 1450 1451 1452 1455 1457 1461 1466 1469 1473 1480 1486 1490 1502 1511 1512 1518 1521
1436 1437 1439 1442 1444 1446 1447 1448 1450 1453 1456 1461 1464 1472 1477 1483 1490 1494 1501 1509 1516 1518
1433 1434 1436 1437 1439 1441 1443 1446 1447 1449 1453 1457 1462 1470 1474 1479 1486 1492 1499 1507 1513 1517
1430 1431 1432 1433 1435 1437 1440 1441 1444 1446 1449 1453 1459 1464 1470 1477 1483 1489 1497 1504 1507 1512
1427 1427 1428 1430 1431 1434 1436 1438 1441 1443 1447 1451 1456 1461 1469 1475 1480 1488 1494 1500 1504 1510
1424 1424 1425 1426 1428 1430 1433 1435 1438 1441 1445 1450 1455 1460 1467 1473 1479 1485 1491 1494 1503 1507